Location: Kumla
(59.1265°N, 15.1401°E)
Time: 21:48:25
(UTC+01:00)

Vanguard 1 - Pass Details

Date: 04 December 2023
Orbit: 653 x 3825 km, 34.3° (Epoch: 04 March)

Event Time Altitude Azimuth Distance (km) Brightness Sun altitude
Rises 17:34:59 0° 207° (SSW) 6,014 14.7 -17.2°
Reaches altitude 10° 17:39:37 10° 195° (SSW) 5,466 14.2 -17.7°
Maximum altitude 17:52:15 25° 149° (SSE) 5,239 13.5 -19.3°
Enters shadow 18:04:43 15° 111° (ESE) 6,481 13.7 -20.9°
